Weather History for KMVN - December, 2012

Change the Weather History Date:

Friday, December 21, 2012

  Actual Average Record
Temperature  
Mean Temperature 30 °F -  
Max Temperature 35 °F 36 °F 57 °F (2006)
Min Temperature 26 °F 22 °F 6 °F (2000)
Degree Days  
Heating Degree Days 34    
Moisture  
Dew Point 16 °F    
Average Humidity 57    
Maximum Humidity 69    
Minimum Humidity 44    
Precipitation  
Precipitation 0.00 in - - ()
Sea Level Pressure  
Sea Level Pressure 30.14 in    
Wind  
Wind Speed 10 mph (WNW)    
Max Wind Speed 18 mph    
Max Gust Speed 31 mph    
Visibility 10 miles    
Events      
Averages and records for this station are not official NWS values.
T = Trace of Precipitation, MM = Missing Value Source: NWS Daily Summary

Daily Weather History Graph

Daily Weather History Graph

Search for Another Location

Airport or City:

Trip Planner

Search our weather history database for the weather conditions in past years. The results will help you decide how hot, cold, wet, or windy it might be!

Date:

Astronomy

Dec. 21, 2012 Rise Set
Actual Time 7:09 AM CST 4:38 PM CST
Civil Twilight 6:39 AM CST 5:08 PM CST
Nautical Twilight 6:06 AM CST 5:41 PM CST
Astronomical Twilight 5:33 AM CST 6:13 PM CST
Moon 12:22 PM CST (12/21) 12:59 AM CST (12/21)
Length of Visible Light 10h 29m
Length of Day
9h 29m
Waxing Gibbous, 65% of the Moon is Illuminated
Dec 21
Waxing Gibbous
Dec 28
Full
Jan 4
Last Quarter
Jan 11
New
Jan 18
First Quarter

Hourly Weather History & Observations

Time (CST) Temp. Windchill Dew Point Humidity Pressure Visibility Wind Dir Wind Speed Gust Speed Precip Events Conditions
12:15 AM 28.4 °F 17.0 °F 17.6 °F 64% 29.90 in 10.0 mi West 15.0 mph 25.3 mph N/A   Overcast
12:55 AM 28.4 °F 17.5 °F 19.4 °F 69% 29.92 in 10.0 mi West 13.8 mph 23.0 mph N/A   Overcast
1:15 AM 28.4 °F 19.1 °F 17.6 °F 64% 29.93 in 10.0 mi West 10.4 mph 25.3 mph N/A   Overcast
1:35 AM 28.4 °F 17.5 °F 17.6 °F 64% 29.94 in 10.0 mi West 13.8 mph 25.3 mph N/A   Overcast
1:55 AM 28.4 °F 18.0 °F 17.6 °F 64% 29.95 in 10.0 mi West 12.7 mph 21.9 mph N/A   Overcast
2:15 AM 28.4 °F 18.0 °F 17.6 °F 64% 29.96 in 10.0 mi West 12.7 mph 31.1 mph N/A   Mostly Cloudy
2:35 AM 28.4 °F 17.0 °F 17.6 °F 64% 29.96 in 10.0 mi West 15.0 mph 24.2 mph N/A   Partly Cloudy
2:55 AM 28.4 °F 20.4 °F 17.6 °F 64% 29.97 in 10.0 mi West 8.1 mph 25.3 mph N/A   Clear
3:15 AM 28.4 °F 18.0 °F 17.6 °F 64% 29.98 in 10.0 mi West 12.7 mph 23.0 mph N/A   Clear
3:35 AM 26.6 °F 13.4 °F 15.8 °F 64% 29.98 in 10.0 mi West 18.4 mph 26.5 mph N/A   Clear
3:55 AM 26.6 °F 16.8 °F 17.6 °F 69% 29.98 in 10.0 mi West 10.4 mph 23.0 mph N/A   Clear
4:15 AM 26.6 °F 15.7 °F 15.8 °F 64% 29.99 in 10.0 mi West 12.7 mph 27.6 mph N/A   Clear
4:35 AM 26.6 °F 16.8 °F 15.8 °F 64% 29.99 in 10.0 mi West 10.4 mph 20.7 mph N/A   Clear
4:55 AM 26.6 °F 18.2 °F 15.8 °F 64% 30.00 in 10.0 mi West 8.1 mph 24.2 mph N/A   Clear
5:15 AM 26.6 °F 15.2 °F 15.8 °F 64% 30.00 in 10.0 mi West 13.8 mph 26.5 mph N/A   Clear
5:35 AM 26.6 °F 17.5 °F 15.8 °F 64% 30.01 in 10.0 mi WNW 9.2 mph 23.0 mph N/A   Clear
5:55 AM 26.6 °F 16.8 °F 15.8 °F 64% 30.02 in 10.0 mi West 10.4 mph 19.6 mph N/A   Clear
6:15 AM 26.6 °F 15.2 °F 15.8 °F 64% 30.03 in 10.0 mi West 13.8 mph 20.7 mph N/A   Clear
6:35 AM 26.6 °F 17.5 °F 15.8 °F 64% 30.04 in 10.0 mi West 9.2 mph 20.7 mph N/A   Clear
6:55 AM 26.6 °F 15.7 °F 15.8 °F 64% 30.05 in 10.0 mi West 12.7 mph 20.7 mph N/A   Clear
7:15 AM 26.6 °F 16.2 °F 15.8 °F 64% 30.06 in 10.0 mi West 11.5 mph 19.6 mph N/A   Clear
7:35 AM 26.6 °F 16.8 °F 15.8 °F 64% 30.08 in 10.0 mi West 10.4 mph 18.4 mph N/A   Clear
7:55 AM 26.6 °F 17.5 °F 15.8 °F 64% 30.08 in 10.0 mi West 9.2 mph 18.4 mph N/A   Clear
8:15 AM 26.6 °F 17.5 °F 15.8 °F 64% 30.09 in 10.0 mi WNW 9.2 mph 20.7 mph N/A   Clear
8:35 AM 28.4 °F 17.5 °F 15.8 °F 59% 30.10 in 10.0 mi West 13.8 mph 24.2 mph N/A   Clear
8:55 AM 28.4 °F 18.0 °F 15.8 °F 59% 30.11 in 10.0 mi West 12.7 mph 24.2 mph N/A   Clear
9:15 AM 28.4 °F 19.7 °F 17.6 °F 64% 30.12 in 10.0 mi West 9.2 mph 21.9 mph N/A   Clear
9:35 AM 30.2 °F 19.8 °F 17.6 °F 60% 30.13 in 10.0 mi West 13.8 mph 25.3 mph N/A   Clear
9:55 AM 30.2 °F 20.8 °F 17.6 °F 60% 30.14 in 10.0 mi West 11.5 mph 20.7 mph N/A   Clear
10:15 AM 30.2 °F 20.8 °F 15.8 °F 55% 30.15 in 10.0 mi West 11.5 mph 20.7 mph N/A   Clear
10:35 AM 30.2 °F 20.2 °F 17.6 °F 60% 30.15 in 10.0 mi WNW 12.7 mph 26.5 mph N/A   Clear
10:55 AM 32.0 °F 22.1 °F 17.6 °F 55% 30.16 in 10.0 mi West 13.8 mph 21.9 mph N/A   Clear
11:15 AM 32.0 °F 23.6 °F 15.8 °F 51% 30.16 in 10.0 mi WNW 10.4 mph 21.9 mph N/A   Clear
11:35 AM 33.8 °F 25.3 °F 15.8 °F 48% 30.16 in 10.0 mi NW 11.5 mph 24.2 mph N/A   Clear
11:55 AM 33.8 °F 26.4 °F 17.6 °F 52% 30.17 in 10.0 mi WNW 9.2 mph 25.3 mph N/A   Clear
12:15 PM 33.8 °F 27.7 °F 17.6 °F 52% 30.17 in 10.0 mi WNW 6.9 mph 16.1 mph N/A   Clear
12:35 PM 35.6 °F 30.7 °F 17.6 °F 48% 30.16 in 10.0 mi WNW 5.8 mph - N/A   Clear
12:55 PM 35.6 °F 29.2 °F 17.6 °F 48% 30.17 in 10.0 mi WNW 8.1 mph 17.3 mph N/A   Clear
1:15 PM 35.6 °F 30.7 °F 15.8 °F 44% 30.17 in 10.0 mi NW 5.8 mph 18.4 mph N/A   Clear
1:35 PM 35.6 °F 29.9 °F 15.8 °F 44% 30.17 in 10.0 mi NW 6.9 mph 25.3 mph N/A   Clear
1:55 PM 35.6 °F 28.6 °F 15.8 °F 44% 30.17 in 10.0 mi WNW 9.2 mph 16.1 mph N/A   Clear
2:15 PM 35.6 °F 30.7 °F 15.8 °F 44% 30.18 in 10.0 mi NW 5.8 mph 19.6 mph N/A   Clear
2:35 PM 35.6 °F 28.0 °F 15.8 °F 44% 30.19 in 10.0 mi West 10.4 mph 24.2 mph N/A   Clear
3:15 PM 35.6 °F 28.6 °F 15.8 °F 44% 30.20 in 10.0 mi WNW 9.2 mph 21.9 mph N/A   Clear
3:35 PM 35.6 °F 28.0 °F 15.8 °F 44% 30.21 in 10.0 mi West 10.4 mph 18.4 mph N/A   Clear
3:55 PM 35.6 °F 30.7 °F 15.8 °F 44% 30.21 in 10.0 mi WNW 5.8 mph - N/A   Clear
4:15 PM 33.8 °F 30.8 °F 14.0 °F 44% 30.22 in 10.0 mi NW 3.5 mph - N/A   Clear
4:35 PM 33.8 °F 28.6 °F 15.8 °F 48% 30.23 in 10.0 mi WNW 5.8 mph 16.1 mph N/A   Clear
4:55 PM 32.0 °F 25.6 °F 14.0 °F 48% 30.23 in 10.0 mi West 6.9 mph - N/A   Clear
5:15 PM 32.0 °F 25.6 °F 15.8 °F 51% 30.24 in 10.0 mi West 6.9 mph - N/A   Clear
5:35 PM 32.0 °F 24.8 °F 14.0 °F 48% 30.24 in 10.0 mi West 8.1 mph - N/A   Clear
5:55 PM 32.0 °F 25.6 °F 15.8 °F 51% 30.25 in 10.0 mi WNW 6.9 mph - N/A   Clear
6:15 PM 30.2 °F 24.3 °F 14.0 °F 51% 30.26 in 10.0 mi West 5.8 mph - N/A   Clear
6:35 PM 30.2 °F 23.4 °F 14.0 °F 51% 30.26 in 10.0 mi West 6.9 mph - N/A   Clear
6:55 PM 30.2 °F 22.6 °F 14.0 °F 51% 30.26 in 10.0 mi WNW 8.1 mph - N/A   Clear
7:15 PM 30.2 °F 23.4 °F 14.0 °F 51% 30.26 in 10.0 mi WNW 6.9 mph - N/A   Clear
7:35 PM 30.2 °F 24.3 °F 12.2 °F 47% 30.27 in 10.0 mi West 5.8 mph - N/A   Clear
7:55 PM 30.2 °F 23.4 °F 12.2 °F 47% 30.28 in 10.0 mi West 6.9 mph - N/A   Clear
8:15 PM 30.2 °F 24.3 °F 14.0 °F 51% 30.28 in 10.0 mi West 5.8 mph - N/A   Clear
8:35 PM 30.2 °F 22.6 °F 15.8 °F 55% 30.28 in 10.0 mi West 8.1 mph - N/A   Clear
8:55 PM 30.2 °F - 15.8 °F 55% 30.27 in 10.0 mi Calm Calm - N/A   Clear
9:15 PM 30.2 °F 26.7 °F 15.8 °F 55% 30.28 in 10.0 mi NW 3.5 mph - N/A   Clear
9:35 PM 28.4 °F 24.6 °F 15.8 °F 59% 30.28 in 10.0 mi West 3.5 mph - N/A   Clear
9:55 PM 28.4 °F 23.3 °F 15.8 °F 59% 30.28 in 10.0 mi West 4.6 mph - N/A   Clear
10:15 PM 28.4 °F 24.6 °F 17.6 °F 64% 30.29 in 10.0 mi West 3.5 mph - N/A   Clear
10:35 PM 28.4 °F 23.3 °F 17.6 °F 64% 30.29 in 10.0 mi West 4.6 mph - N/A   Clear
10:55 PM 28.4 °F - 17.6 °F 64% 30.29 in 10.0 mi Calm Calm - N/A   Clear
11:15 PM 26.6 °F - 17.6 °F 69% 30.29 in 10.0 mi Calm Calm - N/A   Clear
11:35 PM 26.6 °F - 15.8 °F 64% 30.29 in 10.0 mi Calm Calm - N/A   Clear
11:55 PM 26.6 °F - 15.8 °F 64% 30.28 in 10.0 mi Calm Calm - N/A   Clear